"Pseudo-MPEC" for P116h78

Created 2020 Sep 18 11:07:45 UT using Find_Orb

Click here for an explanation of pseudo-MPECs

 
 Astrometry: 
     P116h78  C2020 09 16d][cd]x7lR3e8t:3%w#Astrometry=qLV#M-qs9J]P,:CRtZDLGcF51
     P116h78  C2020 09 16dB#w!UUrL[().6[)%rYerM.%GBItjg8fj6gEE`Kh/hX/I;hANS9!F51
     P116h78  C2020 09 16arI*Bwtc5`S%'SJAX*dgrvQA8sbfMVB4NErJBl3W,A7hNa/`FM(JF51
     P116h78  C2020 09 16Y:bRV(Y2Jn;If?redacted;k3-#sN:aVUK!xDtHW4ddDGC1KkLu2F51
     P116h78 KC2020 09 17EfyRCrZ]4jm9aH7+B:=0X'U%$fQpl\kF[xjSX'A#tZdwLIsff*DGH21
     P116h78 KC2020 09 179$Y/P%52p5mn%'aB*5H2(q,n^jm_)KeZ;AI'k8t:uAYq%nclickMH21
     P116h78 IC2020 09 17M[Vxg$\1Kvnv;001+38vL36Db1#YjK`=,MuR^F(RCD-UGAGDmZ4kL01
     P116h78 KC2020 09 17vFn/jspbf$-a0lbmx_k;lb3G`Z(uKXushem8MMX+Z@p\c%A.t3.\L01
     P116h78 IC2020 09 17!Uw57LapG48fhere[Pn..Si(IodfN_tHs(_N8\cO.Jy/97OtAC)*L01
     P116h78 KC2020 09 18wLfuQA$forjoLcRekj!UscYsLrdm,yPjvVQQaLURA(oMGa=Ikfu9H21
     P116h78 KC2020 09 18n(;;h:kXkG5vxvHTNC6explanationDq7+h`!3'vQ@DZ5_H)*[NQH21
     P116h78 KC2020 09 18pJPlL^uJtsA1XcLYw-/N'Tb9eyDFNORYb%=7Ok0JWhg]!dD1mKe/H21

Station data:
(F51) Pan-STARRS 1, Haleakala  (N20.707235 W156.255910)  US/Hawaii.
   Observers N. Primak, A. Schultz, S. Watters, J. Thiel, T. Goggia. Measurer
   PS1 Science Consortium. 1.8-m Ritchey-Chrétien + CCD.
(H21) Astronomical Research Observatory, Westfield  (N39.483057 W87.968270)
   US/Illinois. 0.76-m f/3.0 astrograph + CCD.
(L01) Višnjan Observatory, Tičan  (N45.290900 E13.749300)  Croatia.
   Observers K. Korlević, E. Pettarin. Measurer E. Pettarin. 1.0-m f/2.9
   reflector + CCD.

Orbital elements:  P116h78
   Perihelion 2020 Dec 11.481836 +/- 1.09 TT = 11:33:50 (JD 2459194.981836)
Epoch 2020 Sep 18.0 TT = JDT 2459110.5   Earth MOID: 0.4652   Ma: 0.0752
M 326.68917563 +/- 2.6              (J2000 ecliptic)          AutoNEOCP
n   0.39429569 +/- 0.0321           Peri.  222.51445 +/- 1.3
a   1.84185183 +/- 0.1              Node   183.96336 +/- 0.37
e   0.2316603 +/- 0.0257            Incl.   24.30708 +/- 1.9
P   2.50/913.00d           H 21.2   G  0.15   U 10.4  
q 1.41516781 +/- 0.03    Q 2.26853585 +/- 0.161
From 12 observations 2020 Sept. 16-18 (42.6 hr); mean residual 0".22
Residuals in arcseconds: 
200916 F51  .03+  .02+    200917 H21  .07-  .45-    200917 L01  .25-  .43+    
200916 F51  .11+  .09+    200917 H21  .30-  .13+    200918 H21  .01+  .06-    
200916 F51  .01+  .04-    200917 L01  .58+  .03-    200918 H21  .00   .26-    
200916 F51  .03-  .01+    200917 L01  .16+  .20+    200918 H21  .32-  .14-    

Ephemerides (geocentric):
Date (UTC) HH   RA              Dec         delta   r     elong  mag " sig PA
---- -- -- --  -------------   -----------  ------ ------ -----  --- ---- ---
2020 09 18 11  23 23 30.611   +08 12 49.27  .52667 1.5248 168.8 21.3 .498 143
2020 09 18 12  23 23 29.596   +08 10 59.61  .52656 1.5247 168.8 21.3 .475 142
2020 09 18 13  23 23 28.581   +08 09 09.89  .52644 1.5246 168.9 21.3 .451 142
2020 09 18 14  23 23 27.568   +08 07 20.10  .52633 1.5245 168.9 21.3 .427 142
2020 09 18 15  23 23 26.554   +08 05 30.23  .52622 1.5244 168.9 21.3 .401 141
2020 09 18 16  23 23 25.542   +08 03 40.29  .52610 1.5243 168.9 21.3 .374 141
2020 09 18 17  23 23 24.530   +08 01 50.28  .52599 1.5242 168.9 21.3 .347 140
2020 09 18 18  23 23 23.519   +08 00 00.20  .52588 1.5241 169.0 21.3 .318 139
2020 09 18 19  23 23 22.509   +07 58 10.05  .52577 1.5240 169.0 21.3 .288 139
2020 09 18 20  23 23 21.499   +07 56 19.83  .52566 1.5239 169.0 21.3 .258 137
2020 09 18 21  23 23 20.490   +07 54 29.54  .52555 1.5239 169.0 21.2 .227 136
2020 09 18 22  23 23 19.481   +07 52 39.18  .52544 1.5238 169.0 21.2 .195 134
2020 09 18 23  23 23 18.474   +07 50 48.75  .52533 1.5237 169.1 21.2 .162 132
2020 09 19 00  23 23 17.467   +07 48 58.25  .52522 1.5236 169.1 21.2 .129 128
2020 09 19 01  23 23 16.460   +07 47 07.68  .52511 1.5235 169.1 21.2 .095 121
2020 09 19 02  23 23 15.455   +07 45 17.04  .52500 1.5234 169.1 21.2 .064 107
2020 09 19 03  23 23 14.450   +07 43 26.34  .52490 1.5233 169.1 21.2 .042  73
2020 09 19 04  23 23 13.446   +07 41 35.57  .52479 1.5232 169.1 21.2 .047  23
2020 09 19 05  23 23 12.443   +07 39 44.72  .52468 1.5231 169.2 21.2 .076 177
2020 09 19 06  23 23 11.440   +07 37 53.81  .52458 1.5230 169.2 21.2 .112 166
2020 09 19 07  23 23 10.439   +07 36 02.84  .52447 1.5229 169.2 21.2 .152 160
2020 09 19 08  23 23 09.438   +07 34 11.79  .52436 1.5228 169.2 21.2 .193 157
2020 09 19 09  23 23 08.438   +07 32 20.68  .52426 1.5227 169.2 21.2 .235 154
2020 09 19 10  23 23 07.438   +07 30 29.51  .52416 1.5226 169.2 21.2 .278 153
2020 09 19 11  23 23 06.440   +07 28 38.26  .52405 1.5225 169.3 21.2 .323 151
2020 09 19 12  23 23 05.442   +07 26 46.96  .52395 1.5224 169.3 21.2 .368 150
2020 09 19 13  23 23 04.446   +07 24 55.58  .52384 1.5223 169.3 21.2 .414 149
2020 09 19 14  23 23 03.450   +07 23 04.14  .52374 1.5222 169.3 21.2 .462 149
2020 09 19 15  23 23 02.454   +07 21 12.63  .52364 1.5221 169.3 21.2 .510 148
2020 09 19 16  23 23 01.460   +07 19 21.06  .52354 1.5220 169.3 21.2 .559 148
2020 09 19 17  23 23 00.467   +07 17 29.43  .52344 1.5219 169.3 21.2 .609 147
2020 09 19 18  23 22 59.474   +07 15 37.73  .52333 1.5218 169.4 21.2 .660 147
2020 09 19 19  23 22 58.483   +07 13 45.97  .52323 1.5217 169.4 21.2 .712 146
2020 09 19 20  23 22 57.492   +07 11 54.14  .52313 1.5216 169.4 21.2 .765 146
2020 09 19 21  23 22 56.502   +07 10 02.25  .52303 1.5215 169.4 21.2 .819 146
2020 09 19 22  23 22 55.513   +07 08 10.29  .52294 1.5214 169.4 21.2 .874 145
2020 09 19 23  23 22 54.525   +07 06 18.28  .52284 1.5213 169.4 21.2 .929 145
2020 09 20 00  23 22 53.538   +07 04 26.20  .52274 1.5212 169.4 21.2 .985 145
2020 09 20 01  23 22 52.552   +07 02 34.06  .52264 1.5211 169.4 21.2 1.04 144
2020 09 20 02  23 22 51.567   +07 00 41.85  .52254 1.5210 169.4 21.2 1.10 144
2020 09 20 03  23 22 50.583   +06 58 49.59  .52245 1.5209 169.5 21.2 1.16 144
2020 09 20 04  23 22 49.600   +06 56 57.26  .52235 1.5208 169.5 21.2 1.22 143
2020 09 20 05  23 22 48.618   +06 55 04.87  .52225 1.5207 169.5 21.2 1.28 143
2020 09 20 06  23 22 47.637   +06 53 12.42  .52216 1.5206 169.5 21.2 1.34 143
2020 09 20 07  23 22 46.656   +06 51 19.91  .52206 1.5205 169.5 21.2 1.40 143
2020 09 20 08  23 22 45.677   +06 49 27.34  .52197 1.5204 169.5 21.2 1.47 142
2020 09 20 09  23 22 44.699   +06 47 34.71  .52187 1.5203 169.5 21.2 1.53 142
2020 09 20 10  23 22 43.722   +06 45 42.01  .52178 1.5202 169.5 21.2 1.60 142